RH
23 23 25 27 29 30 32 32 33 34 36 40 56 79 78 60 58 48 56 78 95 80 70 72 82 85 87 83 82 85 88 93 92 81 73 62 59 64 68 68 65 45 37
22 27 29 30 30 29 31 33 33 35 35 35 36 47 65 69 63 56 46 43 62 98 88 77 77 75 87 92 92 82 88 94 94 82 74 63 59 64 72 70 69 63 47
26 30 39 40 38 34 31 31 31 33 34 36 38 38 46 62 79 67 50 38 44 69 87 90 99 84 92 95 94 96 77 82 95 94 73 68 68 65 66 72 72 68 63
38 42 48 52 53 43 37 33 30 26 28 34 39 40 41 47 75 82 70 68 69 72 69 80 92 96 99 99 99 100 96 99 96 96 89 73 70 68 63 63 64 67 64
44 50 55 59 61 50 42 40 39 41 34 30 28 29 34 40 47 63 80 86 90 90 80 74 71 90 99 99 97 97 100 98 100 97 89 85 77 71 65 60 60 61 62
53 57 62 64 65 60 50 44 42 44 54 52 41 35 34 32 34 38 55 78 85 87 92 86 93 100 97 97 98 98 98 99 98 100 100 95 88 82 73 68 67 67 67
56 60 63 65 64 57 52 50 50 50 53 55 58 56 55 45 40 37 44 64 78 86 85 83 83 82 97 99 98 98 97 93 98 94 98 100 100 94 86 82 74 71 70
60 62 64 65 66 68 63 56 55 58 59 59 60 60 63 66 65 60 57 54 66 83 86 83 85 86 89 93 99 98 96 99 98 98 98 100 99 98 98 94 89 84 82
62 62 63 65 67 74 69 66 68 71 66 64 67 69 73 72 68 61 56 53 45 44 58 76 80 84 92 100 98 96 97 98 98 93 98 99 100 100 99 100 96 90 91
61 62 63 66 67 76 72 73 72 72 68 65 66 71 72 68 67 64 54 48 45 47 47 49 48 68 87 92 99 98 97 98 98 97 98 99 100 100 100 100 100 100 99
62 64 62 64 72 78 77 76 73 70 66 64 65 64 63 63 61 61 58 54 50 50 47 45 46 51 59 59 59 97 99 97 98 100 100 100 100 100 100 100 100 100 100
66 63 63 66 75 75 77 76 75 71 68 66 64 62 62 62 63 65 68 68 67 62 59 55 55 58 68 80 80 97 98 98 100 97 94 99 100 100 100 100 100 100 99
64 62 65 68 74 73 77 77 73 70 71 71 69 71 73 69 70 75 79 86 87 82 85 94 91 94 96 100 99 98 100 97 100 100 97 100 100 100 100 100 99 99 94
62 62 69 73 76 75 76 77 75 74 74 75 78 75 76 78 80 82 81 84 91 94 95 97 98 98 97 98 98 98 100 100 99 100 100 100 100 98 99 100 98 95 98
60 62 69 73 74 77 81 79 76 78 82 84 85 80 78 81 84 94 94 91 86 82 87 89 94 98 99 99 98 96 98 100 100 100 99 100 96 94 95 99 100 100 100
61 63 70 73 77 80 83 86 81 85 85 87 88 88 88 90 95 96 96 97 94 98 98 99 98 94 91 91 94 99 98 98 99 98 96 96 99 100 100 99 100 100 97
64 66 70 70 74 80 85 85 85 86 86 84 90 93 94 93 94 96 92 93 93 96 93 91 88 83 92 96 94 95 96 99 99 99 99 99 99 99 99 97 84 39 28
67 68 71 75 78 83 86 87 84 81 81 88 92 94 91 88 89 90 90 96 96 97 97 93 91 85 88 94 98 100 98 98 97 98 98 98 85 70 42 29 25 22 28
68 70 73 76 81 85 87 86 82 83 91 91 92 89 86 84 84 89 95 100 99 98 92 94 93 92 93 99 98 77 51 32 28 27 24 24 21 21 18 20 33 52 68
70 75 80 81 83 84 87 91 91 93 93 92 88 89 87 82 90 89 93 94 92 92 93 90 66 36 26 21 20 20 19 17 16 16 20 24 23 23 22 27 42 54 54
72 78 84 84 88 91 93 92 90 93 91 88 90 88 84 86 87 88 93 80 43 34 33 30 26 22 19 17 13 12 14 16 21 26 30 26 28 25 26 24 24 26 28
76 76 84 87 92 88 82 85 89 92 89 92 90 88 90 92 86 60 34 33 34 29 24 22 19 15 13 11 11 13 13 15 17 21 25 26 24 22 22 21 22 24 24
78 76 79 85 83 78 80 82 86 87 92 97 98 93 84 48 33 30 32 35 31 26 23 20 14 13 12 14 15 17 17 25 25 30 29 28 27 25 25 24 26 29 42
81 76 70 78 77 77 80 83 85 90 94 95 87 64 35 29 29 32 34 29 24 22 19 15 11 12 14 15 18 19 22 24 26 27 26 26 28 28 28 32 40 57 67
85 77 71 75 78 78 78 83 89 92 91 83 54 34 28 26 27 31 30 23 19 17 13 9 10 11 12 14 16 20 22 24 27 25 26 29 29 29 34 46 63 69 71
83 82 78 79 81 81 82 83 86 88 76 61 40 29 25 24 28 32 24 19 17 14 8 9 10 11 12 16 18 21 24 26 26 27 30 30 30 29 37 50 68 73 74
Wind_Speed
14 14 15 19 17 18 19 21 21 20 19 22 21 24 28 29 28 26 27 27 25 29 29 31 30 30 30 32 33 33 30 31 28 23 25 26 28 27 27 25 25 26 26
12 7 9 11 18 21 18 18 20 21 22 23 25 27 25 31 34 34 33 30 29 29 30 33 34 34 34 34 35 35 35 33 32 31 27 25 29 32 31 30 29 29 28
4 2 2 2 4 12 18 22 23 24 25 27 28 29 30 23 27 34 34 32 32 34 31 32 33 35 34 34 37 37 39 36 37 36 30 14 17 20 29 35 34 33 33
6 6 4 2 4 5 4 6 9 13 21 27 30 31 30 25 21 25 27 28 29 30 29 32 36 35 34 35 35 36 40 38 40 38 41 35 16 14 13 24 31 35 36
9 6 3 2 4 4 3 3 4 5 8 9 15 22 29 31 30 23 21 23 25 28 31 33 28 37 35 37 37 38 38 40 43 44 43 43 40 24 25 25 26 31 35
7 5 2 1 3 7 7 7 7 7 7 11 10 9 12 16 23 27 27 23 25 22 23 27 27 26 27 35 38 39 41 41 42 47 47 45 44 47 37 33 32 29 29
6 4 1 1 5 8 10 10 10 11 12 11 11 10 11 13 13 15 23 24 21 22 24 28 29 30 30 29 30 32 40 41 44 43 48 48 47 42 40 44 38 26 28
4 2 2 4 6 9 10 9 8 8 10 12 13 12 9 9 10 11 12 16 22 22 20 20 22 25 25 27 28 30 31 36 38 41 46 47 45 42 41 43 40 37 34
3 2 2 5 6 7 9 7 6 5 7 6 7 9 12 14 16 16 16 17 17 19 23 25 24 23 22 21 22 23 27 30 33 36 40 41 44 40 41 41 40 38 32
4 3 3 6 6 6 7 5 4 3 3 3 3 3 5 7 8 10 12 14 16 18 19 20 22 24 23 26 23 22 23 25 26 29 33 36 38 39 39 41 41 40 39
4 3 5 7 4 5 5 4 4 4 4 4 4 5 7 8 9 12 14 15 16 17 17 17 18 21 24 27 24 22 22 23 24 24 26 29 31 35 38 37 35 31 28
5 5 5 5 4 4 5 5 4 5 6 7 7 9 11 11 11 12 14 16 18 19 20 20 20 20 19 19 20 21 17 18 21 20 22 25 26 28 29 28 25 21 17
5 4 3 4 5 5 4 3 4 5 6 7 9 10 9 10 10 10 12 13 15 16 15 13 14 15 15 14 14 16 18 17 21 20 21 21 21 21 21 19 14 9 8
5 5 5 4 7 7 6 4 5 6 7 7 8 8 9 9 9 9 7 9 10 9 9 9 10 12 13 12 11 11 13 14 16 16 14 13 12 8 8 8 8 8 8
5 5 5 6 5 4 5 5 6 7 6 7 8 9 10 10 9 6 6 7 8 8 8 7 7 7 8 10 9 9 7 6 4 3 3 4 4 6 6 6 7 8 8
4 6 4 4 5 6 5 6 7 6 6 6 7 7 7 6 6 6 7 8 8 7 7 8 9 10 13 13 10 7 6 6 5 5 5 4 6 6 5 5 4 5 6
3 4 4 5 6 7 6 8 7 7 6 6 5 4 3 4 6 8 9 9 11 10 12 13 12 13 15 13 13 12 10 9 7 5 3 1 1 2 2 3 4 5 5
3 3 5 6 6 5 6 7 6 7 5 4 1 2 3 7 10 9 12 14 14 13 14 14 15 13 14 12 12 10 8 6 4 3 2 3 3 3 2 4 5 6 6
4 6 9 9 7 7 6 7 6 4 2 2 4 5 8 11 12 13 15 15 14 13 14 14 13 11 11 10 8 7 7 7 6 5 4 5 6 6 5 6 7 7 6
4 4 4 4 6 5 5 6 4 4 4 6 7 9 11 12 14 15 15 14 12 12 12 10 11 11 10 9 8 6 6 5 6 6 6 6 7 8 9 8 9 10 10
5 4 4 3 6 5 7 5 4 6 7 9 10 12 13 13 13 13 12 10 10 10 10 9 9 9 8 9 9 10 9 9 9 9 10 12 11 11 11 11 10 11 12
5 5 4 5 7 6 4 6 8 9 10 12 13 12 11 11 11 9 9 8 7 7 6 6 6 7 8 10 10 10 10 10 11 11 12 13 13 12 12 11 10 10 9
7 7 6 7 7 5 6 9 11 12 13 12 11 10 9 8 7 6 5 5 3 3 4 6 7 8 10 11 13 14 15 13 12 12 12 12 12 12 10 8 6 5 4
11 9 7 9 8 8 8 9 11 12 11 11 10 9 8 6 5 4 2 2 0 2 4 6 8 10 12 13 14 14 15 15 15 14 13 13 12 11 8 6 5 4 6
14 11 10 9 10 10 10 11 12 12 12 10 9 8 7 5 4 2 2 1 2 4 6 7 9 11 14 14 14 14 14 14 14 13 12 11 10 8 6 5 5 6 8
15 16 14 13 11 11 12 12 13 13 12 11 10 9 7 6 5 4 4 3 4 6 7 9 11 12 14 14 15 16 15 15 15 14 13 12 10 8 7 8 8 10 12
Wind_Direction
255 261 229 232 231 223 227 228 229 232 240 237 235 250 259 266 264 259 248 244 246 254 253 254 251 243 239 236 238 242 239 237 239 231 236 235 245 244 244 242 243 243 242
251 243 247 246 252 250 244 244 244 241 242 241 244 240 258 261 267 271 266 251 245 245 253 254 255 254 244 237 238 245 241 235 236 221 227 231 240 245 242 243 242 245 248
260 272 298 280 231 231 239 240 241 235 236 236 239 241 242 265 259 263 270 271 259 243 240 249 255 256 255 243 237 240 249 244 235 232 223 214 229 243 246 243 242 242 246
151 147 134 155 260 264 251 248 256 255 249 246 246 245 244 244 262 274 278 277 276 276 270 254 249 252 252 249 247 241 248 243 236 232 237 233 242 219 234 240 238 239 241
139 147 179 144 308 315 298 281 278 294 290 277 264 258 252 250 246 246 257 260 264 271 276 279 274 247 249 254 252 249 247 251 243 243 245 240 234 235 241 243 240 237 239
145 135 131 115 278 295 298 292 287 277 281 297 292 287 279 271 263 257 252 259 263 264 269 273 273 269 259 253 254 253 252 254 256 248 247 253 244 238 234 240 247 247 243
151 141 182 279 305 316 308 297 280 270 265 264 271 280 286 285 280 270 255 249 255 266 274 275 274 273 275 269 260 258 255 255 254 256 255 251 253 251 249 247 244 245 238
139 149 331 322 327 321 313 310 300 289 274 265 262 263 267 278 275 268 265 258 255 255 259 270 278 280 277 278 270 264 260 259 259 262 260 256 254 260 255 252 248 244 243
164 206 296 295 314 311 313 330 335 319 300 290 273 259 250 254 263 267 266 264 262 259 256 254 262 272 275 281 279 271 269 264 265 265 265 263 255 258 259 255 252 250 246
189 232 279 282 298 301 311 325 329 341 342 3 4 317 289 279 272 271 269 267 267 267 267 266 263 258 262 266 276 276 270 271 269 269 270 268 262 261 259 258 257 253 252
183 240 260 274 294 293 305 291 299 302 322 330 322 300 293 286 282 282 283 284 281 278 278 277 274 271 268 272 277 275 270 269 266 270 268 268 270 267 260 257 258 258 254
218 256 277 280 254 270 271 279 282 300 317 317 314 311 306 301 303 303 304 299 291 287 283 282 282 286 288 291 292 287 275 272 269 265 268 267 263 261 261 263 266 262 254
220 253 268 262 232 249 259 266 296 317 325 329 331 322 315 313 309 314 325 323 306 291 292 302 307 308 302 300 295 281 272 272 268 263 262 258 258 262 265 262 257 255 242
243 252 259 227 240 253 259 273 306 325 329 331 336 343 344 337 324 315 339 339 338 333 327 325 323 311 304 297 290 287 273 261 256 258 260 257 253 254 250 241 231 233 239
216 252 254 210 229 262 264 288 304 320 323 317 324 334 338 340 341 342 344 1 348 340 335 329 327 336 332 321 311 296 298 298 278 243 251 156 165 173 196 218 241 243 243
243 262 259 217 216 242 254 280 291 305 305 301 318 331 344 0 24 31 34 35 26 32 38 46 45 38 39 45 52 65 75 82 93 107 122 138 164 175 206 214 241 269 275
259 258 247 233 227 243 250 265 282 287 290 296 303 322 6 50 60 56 55 67 74 77 76 69 66 72 71 60 61 58 57 67 67 56 67 115 188 208 271 267 280 287 289
276 274 243 241 236 238 259 272 277 283 300 297 301 67 74 75 73 78 85 86 83 77 73 71 66 61 69 59 60 56 55 56 59 57 358 317 341 336 289 293 296 290 285
252 234 242 243 237 242 257 268 279 273 227 184 121 108 97 91 94 96 92 86 83 83 79 77 75 67 66 55 46 49 50 46 37 22 349 346 335 321 301 296 300 307 304
301 295 292 239 235 242 253 252 231 190 170 138 124 115 107 105 105 100 95 90 85 81 78 77 75 74 67 57 42 28 19 9 357 346 336 325 316 309 310 303 290 291 287
293 251 229 226 233 232 225 208 170 152 135 132 128 121 115 113 108 103 97 87 80 74 70 65 58 45 35 24 15 6 359 350 341 329 320 319 319 318 312 308 303 296 298
255 246 217 226 222 221 193 166 153 143 137 132 127 124 121 116 111 107 103 94 79 69 61 48 28 13 7 359 357 353 347 340 330 322 320 317 315 314 309 307 302 298 296
244 233 218 214 208 189 173 157 145 143 141 138 138 136 131 126 126 122 110 93 70 42 19 2 356 352 347 348 345 344 340 338 332 330 326 319 317 316 313 311 303 297 300
231 226 226 217 198 190 176 163 155 151 151 151 153 154 154 156 160 161 167 148 86 340 335 339 339 339 337 338 337 331 325 325 325 325 322 321 321 322 321 315 309 299 295
230 229 226 218 207 191 187 178 174 168 169 172 177 178 182 187 204 228 255 268 297 322 329 327 328 326 325 326 325 325 323 325 326 323 321 318 318 315 304 296 290 289 296
240 229 223 221 218 205 195 191 188 186 188 194 199 201 206 214 222 241 264 281 306 314 317 320 323 324 322 324 326 329 331 329 327 324 322 320 315 309 300 295 292 294 298